Regional Weather Roundup
Issued by NWS Cleveland, OH

Home | Current Version | Previous Version | Graphics & Text | Print | Product List | Glossary On
Versions: 1 2 3 4 5 6 7 8 9 10 11 12 13 14 15 16 17 18 19 20 21 22 23 24 25 26 27 28 29 30 31 32 33 34 35 36 37 38 39 40 41 42 43 44 45 46 47 48 49 50
000
ASUS41 KCLE 291400
RWRCLE
OHIO REGIONAL WEATHER ROUNDUP
NATIONAL WEATHER SERVICE WILMINGTON, OH
1000 AM EDT SUN MAR 29 2015

NOTE: "FAIR" INDICATES FEW OR NO CLOUDS BELOW 12,000 FEET WITH NO
SIGNIFICANT WEATHER AND/OR OBSTRUCTIONS TO VISIBILITY.

OHZ001>008-015>018-024>027-034-035-043-044-291500-
   NORTHWEST OHIO

CITY           SKY/WX    TMP DP  RH WIND       PRES   REMARKS
DEFIANCE       SUNNY     32  20  61 S12       30.26F WCI  23
FINDLAY        SUNNY     32  19  58 S16       30.27F WCI  21
TOLEDO EXPRESS SUNNY     31  16  54 S14G20    30.26F WCI  21
TOLEDO EXEC    SUNNY     33  17  51 SW15      30.29F WCI  23
LIMA           SUNNY     31  18  58 S15G24    30.27F WCI  20
$$

OHZ009>014-019>023-028>033-038-089-291500-
   NORTHEAST OHIO

CITY           SKY/WX    TMP DP  RH WIND       PRES   REMARKS
CLE-HOPKINS    MOSUNNY   30  16  56 S14       30.34S WCI  19
CLE-LAKEFRONT  SUNNY     32  16  51 S10       30.31F WCI  24
CUY CO. ARPT   MOSUNNY   32  18  55 SW14      30.31F WCI  22
LORAIN-ELYRIA  SUNNY     30  18  60 SW14      30.31S WCI  19
ASHTABULA      SUNNY     28  15  58 S7        30.30F WCI  21
AKRON-CANTON   SUNNY     28  17  63 S10       30.31F WCI  19
WOOSTER        NOT AVBL
MANSFIELD      SUNNY     29  17  61 S14       30.28F WCI  18
YOUNGSTOWN     MOSUNNY   28  16  60 SW8       30.30F WCI  20
$$

OHZ042-051>053-060>062-070>072-077>081-291500-
  SOUTHWEST OHIO

CITY           SKY/WX    TMP DP  RH WIND       PRES   REMARKS
CINC-COVINGTON MOSUNNY   32  16  51 S15       30.33F WCI  22
CINC-LUNKEN    SUNNY     31  18  58 S8        30.38S WCI  23
HAMILTON       SUNNY     33  16  49 S13G18    30.35F WCI  24
DAYTON         NOT AVBL
WRIGHT-PAT AFB SUNNY     31  16  53 S16       30.32F WCI  20
DAYTON GENERAL SUNNY     31  17  56 S12       30.32S WCI  22
WILMINGTON     SUNNY     30  16  56 S15       30.32F WCI  19
$$

OHZ036-037-039>041-045>050-054>059-063>069-073>076-082>088-291500-
  CENTRAL AND SOUTHEAST OHIO

CITY           SKY/WX    TMP DP  RH WIND       PRES   REMARKS
COLUMBUS       MOSUNNY   29  14  53 S12       30.35F WCI  19
OSU AIRPORT    SUNNY     29  15  56 S12       30.33F WCI  19
BOLTON FIELD   NOT AVBL
RICKENBACK AFB NOT AVBL
NEWARK         SUNNY     30  15  53 S13       30.34F WCI  20
MARION         SUNNY     30  18  60 S13       30.31F WCI  20
LANCASTER      SUNNY     30  13  49 S10       30.35F WCI  21
ZANESVILLE     SUNNY     27  15  61 S7        30.37S WCI  19
NEW PHILLY     SUNNY     30  14  51 S6        30.36F WCI  24
$$



USA.gov is the U.S. government's official web portal to all federal, state and local government web resources and services.